Regional Weather Roundup
Issued by NWS Wakefield, VA

Home | Current Version | Previous Version | Graphics & Text | Print | Product List | Glossary On
Versions: 1 2 3 4 5 6 7 8 9 10 11 12 13 14 15 16 17 18 19 20 21 22 23 24 25 26 27
000
ASUS41 KAKQ 190410
RWRAKQ

REGIONAL WEATHER ROUNDUP
NATIONAL WEATHER SERVICE WAKEFIELD VA
1200 AM EDT SAT APR 19 2014

Note: "fair" indicates few or no clouds below 12,000 feet with no
significant weather and/or obstructions to visibility. * = Denotes
station may not report precipitation (e.g., rain,snow,etc.),
thunder or fog.

VAZ042-051-052>054-056-190500-
NORTHERN VIRGINIA

CITY           SKY/WX    TMP DP  RH WIND       PRES   REMARKS
WASH NATIONAL  CLOUDY    50  36  58 S6        30.29F
DULLES         CLOUDY    46  34  62 CALM      30.28F
FORT BELVOIR   CLOUDY    43  38  80 CALM      30.29F
QUANTICO       CLOUDY    50  39  66 S10       30.30F
FREDERICKSBRG* CLOUDY    48  39  71 CALM      30.29S
STAFFORD*      CLOUDY    44  40  83 CALM      30.33S
WARRENTON      CLOUDY    43  42  97 CALM      30.28F
CULPEPER*      CLOUDY    46  39  76 CALM      30.29S
MANASSAS*      CLOUDY    45  39  81 CALM      30.28F
LEESBURG*      CLOUDY    46  37  71 CALM      30.28F
WINCHESTER     CLOUDY    45  37  76 CALM      30.25S
$$

VAZ048-049-060>072-079>083-190500-
CENTRAL AND SOUTH CENTRAL VIRGINIA...AND NORTH CENTRAL NORTH CAROLINA

CITY           SKY/WX    TMP DP  RH WIND       PRES   REMARKS
RICHMOND       CLOUDY    47  40  76 SE5       30.30S
CHESTERFIELD*  NOT AVBL
HANOVER        CLOUDY    46  40  79 CALM      30.31S
TAPPAHANNOCK*  CLOUDY    46  38  76 CALM      30.31R
CHARLOTTSVILLE CLOUDY    49  38  65 S8        30.27S
ORANGE*        CLOUDY    45  37  76 CALM      30.30S
LOUISA*        CLOUDY    46  37  71 CALM      30.28R
FARMVILLE*     CLOUDY    48  37  66 CALM      30.27S
SOUTH HILL*    LGT RAIN  48  43  81 CALM      30.33S
ROANOKE RAPIDS LGT RAIN  50  46  87 NE3       30.29F
RALEIGH        LGT RAIN  50  46  86 E6        30.25F FOG
$$

VAZ088>098-190500-
SOUTHEAST VIRGINIA

CITY           SKY/WX    TMP DP  RH WIND       PRES   REMARKS
NORFOLK        CLOUDY    46  41  82 NE7       30.30R
VIRGINIA BEACH CLOUDY    46  42  86 NE5       30.30R
NORFOLK NAVAL  CLOUDY    47  41  80 NE9       30.32R
WEST POINT*    CLOUDY    48  41  76 CALM      30.32S
NEWPORT NEWS   CLOUDY    49  42  77 E5        30.32R
LANGLEY AFB    CLOUDY    46  44  91 SE5       30.32R
FORT EUSTIS    CLOUDY    47  43  85 S3        30.30R
WILLIAMSBURG*  CLOUDY    48  45  87 CALM      30.32R
FRANKLIN*      CLOUDY    48  43  81 CALM      30.32R
WAKEFIELD      CLOUDY    47  41  80 CALM      30.31R
$$

VAZ020-022-025-037-045-190500-
WESTERN AND SOUTHWEST VIRGINIA

CITY           SKY/WX    TMP DP  RH WIND       PRES   REMARKS
STAUNTON*      CLOUDY    45  38  76 CALM      30.27F
HOT SPRINGS VA CLOUDY    50  21  32 SW3       30.30S
LYNCHBURG      CLOUDY    50  41  71 CALM      30.28F
DANVILLE       CLOUDY    50  44  80 E5        30.25F
MARTINSVILLE     N/A     48  44  87 CALM      30.27F
ROANOKE        CLOUDY    49  38  65 CALM      30.28F
BLACKSBURG     CLOUDY    46  43  87 CALM      30.27F
DUBLIN*        CLOUDY    44  40  86 CALM      30.26S
MARION*        CLOUDY    47  37  70 E5        30.26F
HILLSVILLE*    CLOUDY    45  37  76 CALM      30.26F
RICHLANDS*     CLOUDY    56  32  40 E3        30.22F
WISE*          CLOUDY    52  32  46 CALM      30.23S
ABINGDON*      CLOUDY    56  32  40 E6        30.21S
$$

MDZ021>025-VAZ099-100-190500-
SOUTHERN MARYLAND AND THE DELMARVA PENINSULA

CITY           SKY/WX    TMP DP  RH WIND       PRES   REMARKS
PATUXENT RIVER CLOUDY    46  39  76 S3        30.30R
BAY BRIDGE APT CLOUDY    46  39  76 E3        30.29F
LEONARDTOWN    CLOUDY    45  37  76 CALM      30.31S
DOVER          CLOUDY    42  42  99 S2        30.25F
GEORGETOWN     CLOUDY    44  39  82 N6        30.28F
EASTON         CLOUDY    46  42  83 CALM      30.32F
CAMBRIDGE      CLOUDY    46  39  76 S3        30.30R
SALISBURY      CLOUDY    45  39  79 S3        30.30S
OCEAN CITY     CLOUDY    44  39  82 CALM      30.29F
WALLOPS ISLAND CLOUDY    45  41  86 SE6       30.30S
ACCOMACK*      CLOUDY    43  39  87 S5        30.30S
$$

NCZ012>017-030>032-190500-
EASTERN NORTH CAROLINA

CITY           SKY/WX    TMP DP  RH WIND       PRES   REMARKS
ELIZABETH CITY CLOUDY    48  43  82 NE5       30.30R
AHOSKIE*       CLOUDY    48  41  76 N3        30.30F
EDENTON*       CLOUDY    47  43  84 NE5       30.28F
CURRITUCK*     CLOUDY    47  44  87 CALM      30.31S
KILL DEVIL HLS CLOUDY    47  46  93 N5        30.26F
MANTEO         CLOUDY    47  46  93 NE12      30.28F
CAPE HATTERAS  LGT RAIN  53  51  93 N9G17     30.24S FOG
GOLDSBORO      LGT RAIN  52  51  98 NE7       30.21F
WASHINGTON     CLOUDY    48  43  85 NE7       30.26F
GREENVILLE     LGT RAIN  50  45  81 E5        30.26F
NEW BERN       LGT RAIN  51  47  86 NE12      30.24F
WILMINGTON     LGT RAIN  54  51  90 NE14      30.15F FOG
$$

VAZ048-190500-
ELSEWHERE

CITY           SKY/WX    TMP DP  RH WIND       PRES   REMARKS
HARRISBURG PA  CLOUDY    49  35  58 VRB3      30.26F
BALTIMORE      CLOUDY    45  35  68 CALM      30.27F
ANNAPOLIS      CLOUDY    48  39  71 CALM      30.28F
ANDREWS AFB    CLOUDY    43  37  79 S3        30.28F
WILMINGTON DE  CLOUDY    45  39  79 S6        30.30F
PHILADELPHIA   CLOUDY    46  37  71 S6        30.30F
WILDWOOD NJ*   CLOUDY    43  36  75 CALM      30.29F
ATLANTIC CITY  CLOUDY    41  36  82 SW3       30.30F
HENDERSON NC   RAIN      47  45  91 CALM      30.27F
GREENSBORO     LGT RAIN  49  42  77 NE9       30.22F
ROCKY MOUNT    LGT RAIN  51  47  86 NE6       30.25F
FAYETTEVILLE   LGT RAIN  52  50  93 NE10      30.20F FOG
CHARLOTTE      LGT RAIN  49  47  93 N9        30.19F
$$

VAZ100-190500-
MARINE

STATION/POSITION TIME  TEMP    WIND        PRES    WAVE   SWELL
                       AIR SEA DIR/SP/G            HT/PER HT/PER
                 (UTC) (F)     (DEG/KT/KT) (MB)    (FT/S) (FT/S)
44066 TX TWR #4  0400   41 44   40/  4/  6 1025.0F   8/11   8/11
CAPE MAY NJ      0400   43 53  110/  2/  3 1025.6F
LEWES DE         0400   43 49  170/  2/  2 1025.0F
15NM E FENWICK I 0400   43 45              1025.6F   6/11
OCEAN-CITY-INLET 0400   44 47  140/  3/  5 1025.6R
WACHAPREAGUE VA  0400   45 52  100/  5/  6 1025.8R
THOMAS POINT MD  0400   49 52  100/  2/  2 1025.9F
GOOSES REEF MD   0400   49     190/  4/  4 1026.9R
COVE POINT MD    0400   47     210/  5/  5 1025.9R
SOLOMONS ISLAND  0400      52                N/A
BISHOPS HEAD MD  0400   46 54  140/  4/  6 1026.0R
PINEY POINT MD   0400          220/  4/  5   N/A
POTOMAC MD       0400   47     180/  6/  8 1025.5S
CAMBRIDGE MD     0400   46 55  140/  5/  7 1025.6R
LEWISETTA VA     0400   47 53  250/  2/  2 1026.0R
RAPPAHANNOCK LGT 0400          110/  7/  9 1026.4R
STINGRAY PT      0400   46     130/  4/  6 1026.0S
YORK RVR RNG VA  0400   46      90/  5/  6 1025.6R
YORKTOWN VA      0400   47 54  110/  5/  6 1026.2R
JAMESTOWN VA     0400   47     130/  4/  6   N/A
DOMINION TERM VA 0400   47     110/  2/  6 1026.4R
KIPTOPEKE VA     0400      53   70/  3/  5   N/A
CHES BAY BRIDGE  0400   45 51   50/  7/  9 1026.2R
CAPE HENRY VA    0400   45      60/  7/  8   N/A
CHESAPEAKE LGHT  0300   45      60/ 14/ 14 1025.5F
WILLOUBY STN VA  0400   45      90/  7/  9 1025.5R
S CRANEY ISL VA  0400           20/  7/  9 1026.1F
CAPE HENRY BUOY  0400      47                N/A     5/12   2/12
1ST LANDING BUOY 0400      45                N/A     5/11   5/11
64NM E OF VA BCH 0400   51 49   30/ 12/ 14 1024.5R   7/10   5/10
DUCK PIER NC     0400   47 50   20/  9/ 10 1024.7F
44100 DUCK FRF   0400      48                N/A     6/11   3/11
44056 DUCK FRF   0400      48                N/A     6/ 9   2/11
OREGON INLET NC  0400   48 52  350/ 12/ 16 1024.4F
HATTERAS NC      0400   53 56   10/ 10/ 16 1023.9F
CAPE LOOKOUT NC  0300   53      10/ 16/ 18 1022.8S
FRYING PAN SHLS  0400   59 65   50/ 27/ 33 1017.0F   8/ 7   3/10
$$



USA.gov is the U.S. government's official web portal to all federal, state and local government web resources and services.